Terminal Aerodrome Forecast
Issued by NWS Cleveland, OH

Home | Current Version | Previous Version | Graphics & Text | Print | Product List | Glossary On
Versions: 1 2 3 4 5 6 7 8 9 10 11 12 13 14 15 16 17 18 19 20 21 22 23 24 25 26 27 28 29 30 31 32
000
FTUS41 KCLE 282100 AAA
TAFCLE
TAF AMD
KCLE 282106Z 2821/2924 01007KT P6SM SCT250
     FM290000 12004KT P6SM BKN250
     FM291100 15010KT P6SM BKN100
     FM291900 12005KT P6SM BKN100=

USA.gov is the U.S. government's official web portal to all federal, state and local government web resources and services.